This is the latest recevied weather packets stored in our database for station/object DG6YGE-6. If no packets are shown the sender has not sent any weather packets the latest 10 day(s).
| Time | Temp. | Humidity | Pressure | Rain* | Wind** | Luminosity | Snow |
|---|---|---|---|---|---|---|---|
| 1777211354 | 13.89° C | 51% | 1023.4 hPa | 0 mm | - | 510 W/m² | - |
| 1777210753 | 13.33° C | 53% | 1023.5 hPa | 0 mm | - | 510 W/m² | - |
| 1777210153 | 13.33° C | 55% | 1023.6 hPa | 0 mm | - | 492 W/m² | - |
| 1777209554 | 13.33° C | 54% | 1023.8 hPa | 0 mm | - | 604 W/m² | - |
| 1777208953 | 13.33° C | 53% | 1023.7 hPa | 0 mm | - | 536 W/m² | - |
| 1777208353 | 13.33° C | 54% | 1023.8 hPa | 0 mm | - | 424 W/m² | - |
| 1777207753 | 13.33° C | 56% | 1023.8 hPa | 0 mm | - | 611 W/m² | - |
| 1777207153 | 13.33° C | 55% | 1023.9 hPa | 0 mm | - | 672 W/m² | - |
| 1777206553 | 13.33° C | 56% | 1023.9 hPa | 0 mm | - | 691 W/m² | - |
| 1777205954 | 13.33° C | 55% | 1023.9 hPa | 0 mm | - | 691 W/m² | - |
| 1777205353 | 13.33° C | 55% | 1024.1 hPa | 0 mm | - | 722 W/m² | - |
| 1777204753 | 12.78° C | 57% | 1024.1 hPa | 0 mm | - | 730 W/m² | - |
| 1777204154 | 12.78° C | 57% | 1024.2 hPa | 0 mm | - | 713 W/m² | - |
| 1777203553 | 12.78° C | 58% | 1024.2 hPa | 0 mm | - | 736 W/m² | - |
| 1777202954 | 12.22° C | 58% | 1024.2 hPa | 0 mm | - | 736 W/m² | - |
| 1777202353 | 12.22° C | 57% | 1024.2 hPa | 0 mm | - | 735 W/m² | - |
| 1777201753 | 11.67° C | 62% | 1024.3 hPa | 0 mm | - | 741 W/m² | - |
| 1777201153 | 12.22° C | 61% | 1024.5 hPa | 0 mm | - | 726 W/m² | - |
| 1777200553 | 11.67° C | 61% | 1024.3 hPa | 0 mm | - | 724 W/m² | - |
| 1777199953 | 12.22° C | 59% | 1024.5 hPa | 0 mm | - | 711 W/m² | - |
| 1777199353 | 12.22° C | 60% | 1024.5 hPa | 0 mm | - | 710 W/m² | - |
| 1777198753 | 12.22° C | 59% | 1024.5 hPa | 0 mm | - | 707 W/m² | - |
| 1777198153 | 11.67° C | 61% | 1024.5 hPa | 0 mm | - | 707 W/m² | - |
| 1777197553 | 12.22° C | 65% | 1024.6 hPa | 0 mm | - | 699 W/m² | - |
| 1777196953 | 11.67° C | 64% | 1024.6 hPa | 0 mm | - | 694 W/m² | - |
* Rain latest hour (hover to see other rain measurements)
** Current wind speed in m/s (hover to see current wind gust speed)